Regional Weather Roundup
Issued by NWS

Home | Current Version | Previous Version | Graphics & Text | Print | Product List | Glossary On
Versions: 1 2 3 4 5 6 7 8 9 10 11 12 13 14 15 16 17 18 19 20 21 22 23 24 25 26 27 28 29 30 31 32 33 34 35 36 37 38 39 40 41 42 43 44 45 46 47 48 49 50
951
ASUS43 KLMK 070910
RWRKY
KENTUCKY REGIONAL WEATHER ROUNDUP
NATIONAL WEATHER SERVICE LOUISVILLE KY
400 AM EST WED DEC 07 2016

NOTE "FAIR" INDICATES FEW OR NO CLOUDS BELOW 12,000 FEET
WITH NO SIGNIFICANT WEATHER AND/OR OBSTRUCTIONS TO VISIBILITY.

KYZ001>023-026-027-061>063-070>075-071000-
WESTERN AND SOUTH CENTRAL KENTUCKY

CITY           SKY/WX    TMP DP  RH WIND       PRES   REMARKS
PADUCAH        CLOUDY    36  29  75 N5        30.15R WCI  32
HENDERSON      PTCLDY    36  27  69 N10       30.14S WCI  28
OWENSBORO      PTCLDY    35  33  92 NW6       30.14R WCI  30
HOPKINSVILLE   MOCLDY    35  35  99 CALM      30.12R
BOWLING GREEN  CLOUDY    36  34  92 CALM      30.13R
GLASGOW        PTCLDY   N/A N/A N/A CALM      30.11S
$$

KYZ024-025-028>034-038-045-046-053-071000-
NORTH CENTRAL KENTUCKY

CITY           SKY/WX    TMP DP  RH WIND       PRES   REMARKS
LOUISVILLE/SDF CLOUDY    37  28  70 CALM      30.11S
LOUISVILLE/LOU CLOUDY    36  28  73 NW3       30.12S
FORT KNOX      CLOUDY    33  31  93 N3        30.09R
$$

KYZ035>037-039>044-047>052-055>060-089>105-071000-
NORTHEAST KENTUCKY

CITY           SKY/WX    TMP DP  RH WIND       PRES   REMARKS
LEXINGTON      MOCLDY    34  29  82 CALM      30.09S
COVINGTON      MOCLDY    32  28  85 NW3       30.07S
FRANKFORT      PTCLDY    35  29  78 VRB3      30.08S
$$

KYZ054-064>069-076>088-106>120-071000-
SOUTHEAST KENTUCKY

CITY           SKY/WX    TMP DP  RH WIND       PRES   REMARKS
JACKSON        CLOUDY    39  33  79 NW5       30.07R
LONDON         CLOUDY    39  34  82 CALM      30.08R
SOMERSET       CLOUDY    37  32  81 N3        30.11R
MIDDLESBORO    CLOUDY    42  35  77 N5        30.08S
MONTICELLO     CLOUDY    39  36  89 NW6       30.11S WCI  35
$$





USA.gov is the U.S. government's official web portal to all federal, state and local government web resources and services.